Tracking 27371 objects as of 8-Jun-2023
HD Live streaming from Space Station
objects crossing your sky now

STARLINK-5135

Track STARLINK-5135 now!
10-day predictions
STARLINK-5135 is classified as:


NORAD ID: 54005
Int'l Code: 2022-125AT
Perigee: 546.2 km
Apogee: 547.6 km
Inclination: 53.2 °
Period: 95.4 minutes
Semi major axis: 6917 km
RCS: Unknown
Launch date: October 5, 2022
Source: United States (US)
Launch site: AIR FORCE WESTERN TEST RANGE (AFWTR)
Your satellite tracking list
Your tracking list is empty




NASA's NSSDC Master Catalog

Two Line Element Set (TLE):
1 54005U 22125AT  23158.88170939  .00000019  00000-0  19274-4 0  9997
2 54005  53.2175  49.0896 0001006 108.0093 252.1009 15.08834909 37627
Source of the keplerian elements: AFSPC